Regional Weather Roundup
Issued by NWS Charleston, WV

Home | Current Version | Previous Version | Text Only | Print | Product List | Glossary On
Versions: 1 2 3 4 5 6 7 8 9 10 11 12 13 14 15 16 17 18 19 20 21 22 23 24 25 26 27 28 29 30 31 32 33 34 35 36 37 38 39 40 41 42 43 44 45 46
000
ASUS41 KRLX 250910
RWRRLX
West Virginia Regional Weather Roundup
National Weather Service Charleston WV
400 AM EST SAT NOV 25 2017

Note: "fair" indicates few or no clouds below 12,000 feet with no
significant weather and/or obstructions to visibility.

WVZ003-251000-
Northern Panhandle of West Virginia

CITY           SKY/WX    TMP DP  RH WIND       PRES   REMARKS
WHEELING       PTCLDY    48  25  40 SW15      29.71F
$$

WVZ009-251000-
Northwest West Virginia

CITY           SKY/WX    TMP DP  RH WIND       PRES   REMARKS
PARKERSBURG    CLEAR     49  31  49 S10       29.79F
$$

WVZ006-251000-
Western West Virginia

CITY           SKY/WX    TMP DP  RH WIND       PRES   REMARKS
HUNTINGTON     PTCLDY    49  33  54 S7        29.80F
$$

WVZ015-251000-
West Central West Virginia

CITY           SKY/WX    TMP DP  RH WIND       PRES   REMARKS
CHARLESTON     CLEAR     34  28  79 CALM      29.81F
$$

WVZ022-031-251000-
North Central West Virginia

CITY           SKY/WX    TMP DP  RH WIND       PRES   REMARKS
CLARKSBURG     PTCLDY    44  24  45 S3        29.79F
MORGANTOWN     CLEAR     51  25  36 S8        29.78F
$$

WVZ025-035-042-045-251000-
Southern West Virginia

CITY           SKY/WX    TMP DP  RH WIND       PRES   REMARKS
BECKLEY        CLEAR     45  31  58 SW8       29.86R
LOGAN            N/A     48  32  53 CALM      29.83F
BLUEFIELD      CLOUDY    44  29  55 W10       29.87F
LEWISBURG      CLOUDY    26  21  80 CALM      29.87S
$$

WVZ047-251000-
Northern Mountains of West Virginia

CITY           SKY/WX    TMP DP  RH WIND       PRES   REMARKS
ELKINS         PTCLDY    26  23  88 CALM      29.83S
$$

WVZ052-251000-
Eastern Panhandle of West Virginia

CITY           SKY/WX    TMP DP  RH WIND       PRES   REMARKS
MARTINSBURG    PTCLDY    28  24  85 CALM      29.80F
PETERSBURG     PTCLDY    27  24  89 CALM      29.80F
$$




USA.gov is the U.S. government's official web portal to all federal, state and local government web resources and services.